Wind_Speed
28 29 29 30 30 30 30 28 27 25 22 19 19 19 19 19 20 21 21 21 21 21 20 20 20 20 19 18 16 15 15 13 9 8 11 7 8 9 4 3 5 10 10 8 11 11 11 12 14 17 14 10 7 4 8 6 4 2 1 1 2 2 2 2 1 1 4 4 2 3 2 3 3 4 3 6 8 8 12 9 5 3 11 19 22 32 34 34
28 29 29 30 31 31 31 30 28 26 23 20 19 19 19 20 21 22 22 23 22 21 20 20 20 19 17 15 13 13 14 12 9 13 14 7 8 9 7 6 5 8 11 12 14 12 11 10 13 15 10 6 5 5 6 5 6 4 2 2 3 3 3 4 2 2 5 5 5 4 4 4 3 5 4 7 11 10 10 11 8 9 14 22 26 31 31 31
28 29 29 30 31 31 31 30 29 27 25 22 19 19 20 21 22 23 24 24 22 21 20 19 18 17 14 11 11 12 11 10 8 9 8 7 9 11 11 10 10 9 12 15 16 14 13 13 15 13 8 6 4 6 8 6 6 5 3 2 4 4 2 3 1 2 6 7 6 5 3 4 3 3 5 5 12 11 8 10 11 14 20 22 23 26 29 29
28 29 29 30 30 31 31 30 29 28 26 22 20 19 20 21 23 24 24 23 21 19 18 17 16 14 11 9 10 11 7 7 3 2 2 3 7 12 14 13 11 11 14 17 16 15 16 15 16 13 9 6 5 8 8 6 6 4 5 5 4 5 2 4 3 3 3 9 7 5 3 2 4 3 5 4 7 8 7 9 10 17 24 23 22 23 25 25
28 29 29 30 30 31 31 31 30 28 26 23 21 20 20 22 23 24 24 22 19 17 16 15 14 12 9 8 10 9 5 2 3 6 3 0 4 9 11 11 12 11 14 18 15 14 15 13 13 12 7 5 6 6 8 9 7 5 8 10 5 6 3 5 8 3 2 9 9 8 4 1 2 3 4 4 4 4 7 10 12 19 23 23 22 21 21 21
28 29 30 30 30 31 32 32 31 28 25 22 21 21 21 22 24 25 23 19 17 16 15 13 11 10 8 10 9 4 2 1 3 5 4 4 2 8 9 10 12 13 14 16 13 12 11 12 11 9 5 5 7 7 8 11 10 5 8 9 7 8 5 6 11 7 4 8 9 9 7 6 4 4 3 4 7 2 4 8 14 20 21 23 23 19 19 19
29 30 30 31 31 31 32 32 31 29 25 22 21 21 22 23 24 25 21 17 15 14 13 10 10 11 10 11 7 1 2 5 2 4 6 6 2 5 9 9 13 15 15 14 12 10 8 11 11 7 6 6 7 9 10 10 11 8 6 8 10 11 9 8 12 10 7 8 7 7 7 7 7 6 3 5 5 4 2 3 10 20 23 22 21 18 18 18
29 30 31 31 31 32 32 32 31 29 25 22 21 21 22 23 24 25 20 15 13 12 10 9 11 12 11 9 5 2 4 5 2 4 6 4 3 2 5 10 14 18 16 15 13 11 9 10 11 7 6 7 8 10 10 10 10 10 8 9 10 10 9 10 11 11 11 7 6 7 6 6 6 7 5 5 5 6 6 3 8 19 22 20 19 18 17 17
30 30 31 32 32 32 32 33 32 29 25 22 22 22 23 23 25 24 18 13 11 10 9 10 14 13 10 6 4 3 2 2 1 2 5 2 3 4 5 9 15 19 15 15 15 13 9 8 9 8 6 7 9 9 9 8 5 7 10 10 10 10 10 12 12 13 13 6 7 8 6 5 5 6 5 5 7 10 7 7 13 21 21 18 18 17 17 17
30 31 31 31 32 32 32 33 32 30 25 22 22 22 24 23 24 22 17 13 10 10 10 13 17 12 7 5 4 2 2 6 3 2 3 2 3 3 6 9 15 19 13 13 15 14 11 9 8 7 7 7 7 8 8 7 4 6 8 5 9 14 11 13 14 13 13 8 8 7 6 5 3 3 3 6 8 10 8 8 12 19 19 18 17 15 17 17
30 31 32 32 32 32 31 32 32 30 25 23 23 23 24 23 23 20 17 14 10 10 11 15 15 7 5 5 4 2 4 9 5 4 3 2 2 1 6 10 16 16 12 11 13 16 15 14 10 5 5 4 6 8 7 7 8 9 9 9 6 12 13 13 13 11 10 8 8 6 5 5 1 4 6 7 6 8 10 8 10 15 16 17 17 15 14 14
30 31 32 32 32 32 31 32 32 29 25 24 24 24 24 23 21 19 17 14 10 9 10 13 10 4 5 5 5 6 6 9 5 4 4 4 5 5 4 10 15 14 14 10 11 18 18 18 14 8 5 4 5 5 5 6 7 9 8 7 7 4 11 14 13 12 9 8 11 9 6 2 3 8 9 9 6 6 10 9 11 13 14 15 15 13 12 14
30 30 31 32 32 32 31 31 31 29 26 25 25 25 24 22 20 18 17 14 10 9 10 11 7 4 5 4 5 6 7 7 2 3 4 4 5 7 5 10 14 14 15 14 14 18 19 18 14 9 7 6 5 4 7 8 7 8 7 4 5 4 6 13 15 15 11 11 16 10 3 4 8 13 11 12 8 8 9 10 13 13 12 13 13 13 11 15
30 31 31 32 32 32 32 31 31 29 26 25 25 25 23 21 20 18 15 12 10 8 8 9 7 4 3 5 7 5 4 4 3 3 4 2 4 8 7 9 13 15 17 18 18 17 16 16 12 8 7 6 6 8 9 7 6 6 5 3 4 3 4 8 15 17 10 10 15 8 2 6 10 14 12 11 11 11 9 9 12 13 13 12 12 13 12 14
31 31 31 31 31 31 31 31 31 30 27 26 25 24 22 20 20 16 13 11 9 7 8 9 6 3 3 6 9 6 3 3 5 5 4 2 6 7 10 9 11 13 16 17 17 16 16 12 8 5 5 6 6 7 6 4 4 4 3 3 4 4 6 8 12 18 14 11 13 9 3 4 8 12 10 7 9 10 9 10 12 12 13 13 11 13 12 12
31 32 31 31 31 30 32 31 31 30 27 27 25 23 21 20 19 15 12 11 9 8 6 6 5 6 3 4 3 5 6 4 1 4 4 5 7 7 9 12 9 10 13 14 13 12 13 9 4 4 4 5 5 4 4 4 4 4 4 4 4 6 6 7 9 17 23 16 12 7 4 2 6 13 13 10 9 8 9 13 14 13 13 13 11 12 11 11
32 32 31 31 31 30 31 31 31 30 28 27 25 24 22 19 16 13 11 10 9 8 6 6 5 5 5 7 4 3 3 1 4 7 6 4 6 10 7 9 8 9 9 10 11 10 7 5 2 2 4 4 4 3 3 4 4 4 4 4 5 7 6 7 8 13 26 22 16 11 5 3 6 12 16 15 15 13 12 13 13 11 12 11 11 12 11 11
33 33 31 31 30 30 30 30 31 29 28 26 25 26 23 16 10 9 8 6 5 5 7 9 7 2 4 7 7 2 3 5 5 6 4 2 4 7 9 4 5 7 7 6 9 8 4 2 2 2 3 4 4 4 5 5 5 5 6 4 6 8 7 9 8 11 27 23 19 14 6 3 5 10 14 13 15 14 10 11 11 10 10 10 11 12 11 12
34 32 31 31 30 30 30 30 29 28 28 25 24 24 16 9 5 3 3 2 1 2 3 4 5 2 4 4 4 3 6 6 5 7 5 3 4 4 7 8 4 6 5 3 5 6 4 2 4 4 3 5 6 7 7 6 8 10 8 4 5 7 6 10 10 10 24 17 15 15 10 6 5 9 14 12 14 11 7 8 10 10 9 10 11 11 11 13
33 32 32 31 30 30 29 30 28 26 26 25 26 21 9 6 4 1 1 3 5 6 8 6 7 5 6 4 3 7 10 8 8 5 4 4 4 5 4 6 4 5 4 4 6 6 5 3 4 5 5 7 9 10 11 10 11 13 10 7 7 7 5 9 9 11 21 13 11 15 15 14 10 11 16 14 13 12 10 9 9 10 10 9 12 12 12 13
33 32 32 31 31 30 29 29 26 22 22 24 23 12 4 6 3 2 5 5 8 9 13 11 6 6 7 5 6 7 7 7 8 3 5 2 3 4 3 4 4 4 4 6 5 5 6 5 5 7 8 10 9 10 12 12 13 13 9 7 8 7 7 10 10 12 18 11 10 13 15 16 15 14 16 15 13 13 13 13 10 10 10 8 10 13 12 12
32 31 32 32 31 30 28 27 23 19 19 18 12 4 2 8 4 6 5 5 10 11 12 9 5 7 7 5 5 5 5 4 7 5 4 0 4 4 3 5 4 4 5 6 5 3 5 5 7 9 9 10 11 11 11 12 12 10 7 6 6 7 7 11 9 9 13 8 10 15 13 12 13 14 16 16 14 12 12 14 11 11 11 8 8 9 11 13
32 32 32 31 31 30 27 25 21 17 17 14 8 4 5 8 8 10 6 4 8 11 10 6 7 7 5 3 1 2 5 5 1 5 2 2 3 4 4 4 4 5 6 6 5 4 4 5 10 12 10 10 11 11 11 9 8 6 6 5 5 8 7 8 5 5 10 8 11 15 10 9 11 11 13 15 14 12 12 14 12 10 11 11 9 7 9 13
32 32 32 31 32 29 26 25 18 12 15 17 15 7 9 9 10 11 6 3 5 8 9 8 7 4 0 1 1 1 4 5 1 2 2 2 1 1 3 4 5 5 5 7 9 7 6 7 11 13 12 12 11 10 10 7 5 5 8 6 6 9 10 9 7 3 5 9 14 14 5 5 10 11 12 14 14 13 14 15 13 11 11 10 9 7 6 9
32 32 31 32 31 28 27 20 11 13 18 16 12 7 10 10 10 10 5 2 3 4 6 5 2 1 1 1 4 2 3 4 1 2 2 2 2 3 2 3 4 4 5 8 8 8 8 9 10 10 12 12 10 9 8 7 5 5 7 8 9 12 14 13 11 9 4 3 12 14 5 2 9 13 13 12 13 13 13 16 16 13 12 10 9 8 7 7
33 31 31 31 29 29 23 10 10 20 17 8 10 13 12 11 11 9 3 2 2 2 4 3 2 2 1 1 3 1 4 3 2 3 2 2 2 1 3 3 2 4 6 6 4 3 5 8 10 11 10 11 11 8 8 8 5 4 6 8 10 12 13 14 11 7 4 1 6 10 6 3 6 9 13 14 15 15 13 14 16 14 12 12 11 10 8 8
32 31 31 29 27 27 16 7 16 20 9 7 15 15 12 11 12 8 1 2 2 4 5 2 2 3 2 2 2 1 2 2 3 1 3 2 2 2 2 4 3 4 5 3 2 2 5 7 8 10 10 7 7 6 8 9 6 3 6 8 9 10 11 13 10 6 4 4 3 6 4 5 4 8 13 15 15 15 14 14 15 15 15 15 14 13 11 10
32 31 31 28 25 22 14 14 17 13 7 12 15 13 12 12 11 5 0 1 0 3 3 2 2 3 3 2 4 3 2 2 2 2 5 4 2 2 2 5 5 6 6 5 3 5 7 6 6 8 9 6 5 5 8 10 7 4 7 10 9 7 9 10 7 4 4 5 5 6 3 3 5 8 12 14 14 14 15 16 16 17 17 16 16 15 14 13
33 31 30 28 23 14 8 12 12 8 11 16 15 14 14 13 9 2 1 1 1 2 0 1 2 3 3 3 5 4 4 3 2 2 4 3 3 3 2 4 6 8 8 6 5 7 9 6 4 5 7 5 6 7 6 8 6 5 8 10 9 7 6 5 4 2 2 3 6 8 5 2 3 7 10 11 11 13 15 16 16 17 18 17 17 17 16 14
33 31 29 27 22 11 8 11 12 9 14 15 15 16 15 10 4 1 2 2 3 2 1 2 2 3 5 5 4 4 2 2 1 2 3 2 5 5 3 4 4 6 6 6 6 7 10 11 8 5 5 5 7 8 8 8 5 3 6 7 7 7 6 4 3 2 3 2 5 8 8 4 3 6 11 12 15 18 16 14 14 15 17 17 17 17 16 14
32 30 26 25 21 12 8 9 9 10 14 14 15 16 11 4 1 1 1 1 2 1 2 3 2 3 4 4 1 5 3 1 2 1 2 1 4 5 3 3 2 2 4 5 5 7 9 10 7 4 5 6 6 6 6 7 5 4 4 4 4 4 4 3 3 4 1 4 5 7 9 6 4 5 10 15 20 22 18 16 17 18 19 17 16 16 16 15
31 26 22 19 16 11 8 7 7 11 12 14 14 9 5 0 2 3 2 0 1 2 0 3 2 1 2 4 2 2 2 1 1 2 2 2 1 2 3 2 2 0 3 3 3 5 7 8 6 6 7 4 5 5 3 4 4 5 5 3 2 2 2 2 1 1 2 4 5 7 8 6 5 5 8 13 17 19 18 19 21 22 21 19 18 17 16 15
29 22 16 10 10 12 10 8 9 9 12 14 10 4 2 1 1 1 2 2 1 2 2 3 2 4 4 4 3 4 3 1 2 1 3 4 4 4 3 6 7 3 1 3 5 4 3 6 7 5 3 2 4 4 2 2 3 4 3 2 2 2 2 2 2 2 3 4 6 9 9 4 3 5 6 8 13 20 21 19 20 23 23 21 20 18 17 16
26 17 12 9 10 13 10 8 6 7 11 11 5 3 2 2 1 7 8 7 3 2 4 4 1 2 3 4 2 4 2 1 1 2 3 3 4 3 4 11 13 8 4 4 4 4 5 5 4 1 3 4 5 6 5 4 3 4 2 2 3 3 2 3 3 4 4 4 7 9 6 2 3 5 7 8 7 17 22 20 19 20 20 19 18 17 17 17
22 12 12 13 15 15 11 8 5 8 11 7 3 3 2 1 3 6 5 5 6 7 7 4 5 3 4 4 5 5 1 1 2 2 1 2 3 3 4 7 11 9 5 4 3 4 6 5 4 8 10 9 6 5 7 6 4 3 3 4 5 5 3 3 3 3 4 3 4 6 5 4 5 6 8 10 9 9 20 21 18 17 17 16 16 16 17 17
22 13 10 14 17 13 8 6 4 8 8 4 2 2 1 2 5 5 4 6 6 7 8 6 4 2 3 2 5 5 3 1 3 3 1 1 5 9 7 7 10 10 7 3 2 4 5 7 9 14 15 12 11 13 8 7 4 2 2 5 6 5 4 2 4 6 4 3 3 4 5 4 4 6 8 10 11 8 16 21 19 17 18 17 16 17 16 16
24 16 10 15 14 5 1 2 4 6 5 2 2 3 2 4 7 6 6 7 7 6 7 4 2 2 3 1 3 4 3 1 2 1 2 1 5 10 8 9 11 11 10 6 1 4 4 8 11 11 13 15 16 20 15 6 8 3 4 4 3 3 3 1 1 3 4 3 3 4 6 4 5 5 8 11 12 9 15 22 21 19 20 19 18 18 18 18
21 14 11 13 8 5 5 2 3 5 3 2 3 4 2 5 7 8 7 7 7 6 5 3 3 4 4 3 1 2 1 1 1 2 2 3 4 9 9 8 12 14 12 8 3 4 5 7 10 7 9 16 15 14 14 5 9 10 7 5 0 1 3 3 1 2 3 3 3 6 7 4 5 5 8 13 13 10 15 23 22 21 21 19 18 19 20 19
11 6 5 5 3 5 3 2 3 4 3 2 3 3 2 6 7 8 8 6 6 5 4 5 4 3 5 5 4 4 5 4 4 3 3 4 3 8 11 7 8 13 11 8 3 3 3 1 7 6 8 13 12 5 5 8 2 10 8 5 2 1 2 3 2 2 3 2 2 5 6 4 4 6 10 15 13 9 12 21 22 21 22 20 18 18 18 17
5 3 1 3 4 2 2 4 2 3 2 2 3 3 5 5 7 10 7 6 6 3 3 6 6 4 6 6 5 7 8 6 5 3 3 5 5 6 11 8 7 11 10 8 6 4 3 0 5 9 10 9 7 4 4 10 9 5 4 5 4 3 2 2 3 3 4 3 2 3 4 5 5 5 9 13 14 11 11 20 21 21 23 22 20 19 18 16
4 3 0 3 4 2 4 3 3 3 2 1 3 6 6 3 6 10 6 4 5 4 3 5 5 5 6 7 7 8 7 7 6 5 3 6 7 4 9 10 9 9 7 6 6 5 3 2 4 8 8 6 8 11 12 12 11 9 7 6 5 4 3 4 4 4 5 4 2 3 4 5 6 3 2 5 12 13 11 18 21 21 25 24 20 20 20 17
3 3 1 2 1 3 4 4 2 1 0 2 5 6 6 4 7 12 8 5 6 4 4 5 6 7 6 6 7 8 6 4 5 6 4 7 11 7 7 11 10 9 7 4 6 6 4 2 4 6 6 9 15 18 17 14 12 11 8 6 6 5 3 3 4 4 4 5 5 4 3 7 8 5 9 11 9 14 10 13 18 19 21 22 19 20 19 17
1 5 4 1 2 4 3 3 2 3 3 2 5 7 8 7 8 11 10 9 8 6 5 6 8 9 7 8 7 7 8 4 4 7 5 6 11 8 9 11 10 8 7 5 5 8 5 1 3 6 6 9 14 16 14 11 8 7 7 6 7 8 7 3 2 5 4 1 2 4 4 7 9 7 11 12 3 11 10 13 19 18 16 17 17 18 17 16
3 5 4 1 4 4 0 2 3 3 4 3 5 8 7 7 9 9 9 10 8 6 6 7 8 7 7 8 8 6 6 4 5 8 7 4 7 9 12 14 12 8 5 4 5 5 4 2 3 5 5 6 9 9 7 8 9 6 7 10 10 12 14 7 3 5 3 5 7 1 5 5 6 11 14 15 12 6 1 11 17 15 13 16 17 16 17 16
4 4 3 4 8 4 2 3 5 4 5 6 6 6 7 6 8 9 9 9 9 7 6 6 9 8 7 7 8 7 6 4 5 6 7 8 7 9 13 13 12 9 6 8 8 5 2 2 2 2 3 4 5 4 4 6 8 7 9 13 13 13 14 8 3 3 2 6 9 3 2 6 8 13 18 19 21 20 15 13 10 7 2 10 16 17 15 14
3 2 3 4 7 5 2 4 6 5 4 5 4 5 7 8 7 9 8 8 9 8 6 6 8 9 8 9 9 8 8 8 7 5 5 7 6 7 11 11 9 9 10 11 9 4 1 2 2 3 5 6 7 8 9 10 10 10 13 17 15 12 12 8 3 2 4 7 6 3 3 11 11 12 17 17 18 19 17 17 16 13 10 4 11 18 16 13
2 2 4 3 3 5 5 5 6 5 7 6 2 5 8 8 7 8 5 4 7 7 6 5 6 6 6 7 6 5 8 9 8 7 6 6 6 7 10 8 6 7 8 9 6 3 1 3 5 7 9 10 12 14 16 14 13 14 15 16 15 11 10 9 5 4 6 6 5 5 9 13 13 9 13 13 13 15 15 16 16 14 17 16 7 10 9 6
3 2 4 4 3 3 4 5 5 7 9 8 4 7 9 8 8 7 5 5 7 8 4 3 6 7 7 6 4 3 6 6 5 5 5 4 5 6 6 6 6 5 5 6 5 3 2 4 6 9 11 12 13 15 15 14 13 15 14 14 15 13 9 10 8 4 4 4 6 9 10 11 13 8 9 11 11 13 13 13 13 14 18 20 18 16 14 14
4 2 6 7 3 3 4 6 5 8 9 6 5 7 8 8 9 9 7 6 6 7 5 4 6 8 8 7 4 2 3 3 4 5 4 3 3 4 4 4 4 5 6 5 4 3 2 3 7 10 11 12 13 14 15 14 13 15 14 13 14 13 11 13 13 7 5 8 10 10 12 10 9 6 4 7 9 11 11 12 14 17 18 18 18 19 18 16
4 1 4 5 4 4 5 5 4 6 6 5 3 3 5 8 10 9 7 7 7 7 6 6 7 8 6 6 5 3 3 3 5 5 5 5 3 2 2 2 2 3 3 4 3 2 2 3 9 9 8 9 12 13 13 12 13 14 14 12 12 12 12 13 12 6 5 9 9 8 10 8 5 6 5 5 10 13 14 14 15 16 17 17 18 18 17 17
8 5 5 4 3 3 4 3 4 5 4 5 4 4 6 8 10 8 7 7 6 6 6 7 8 6 5 5 5 5 6 5 7 7 7 6 5 2 1 2 3 2 2 2 2 1 3 1 6 7 5 6 10 13 13 13 14 14 13 12 11 11 12 10 8 6 6 9 9 8 7 5 5 10 9 6 11 14 15 15 14 13 15 16 17 17 16 16
13 10 9 5 2 2 3 3 6 4 4 4 5 6 7 7 8 7 5 4 5 5 7 8 7 5 5 6 6 7 7 8 8 8 7 6 7 5 4 6 6 4 3 3 1 2 2 2 2 3 5 6 9 13 14 11 10 9 8 8 8 9 11 10 6 8 10 9 6 5 3 2 6 11 12 10 12 14 14 14 12 13 14 15 15 16 15 15
Wind_Direction
359 359 359 360 360 360 360 357 355 353 351 347 344 344 341 338 335 333 331 328 325 321 320 322 322 324 324 327 330 330 328 321 314 263 237 234 198 197 205 205 203 194 202 204 201 198 186 198 205 208 220 215 200 213 231 209 132 114 116 189 228 232 238 188 204 64 88 111 191 253 215 211 238 237 203 185 196 149 130 124 113 165 151 138 140 144 146 147
357 357 357 358 358 359 358 356 354 352 349 345 342 342 339 337 334 334 332 329 325 321 321 320 319 322 323 328 332 331 331 319 290 262 247 204 172 211 229 214 205 200 209 208 210 211 189 194 205 205 219 226 199 206 231 202 158 173 178 185 231 223 198 169 178 55 94 137 178 196 233 243 244 244 242 181 162 155 148 133 147 177 146 138 143 146 148 148
355 355 355 356 357 357 356 355 353 350 347 344 341 340 338 336 335 335 334 329 326 322 319 318 318 321 325 333 335 334 330 312 276 257 250 200 195 222 231 231 229 221 216 206 204 214 204 193 201 204 214 226 201 202 217 198 181 202 193 216 240 209 165 114 90 29 115 151 181 154 187 250 297 300 282 206 159 159 160 143 166 162 142 144 146 148 152 149
353 353 353 354 355 355 355 353 351 348 345 343 340 339 337 335 335 337 335 331 329 325 320 319 319 322 332 339 337 340 323 297 275 171 180 185 193 213 226 234 229 219 215 208 206 223 226 205 197 204 214 218 209 213 221 201 180 185 199 228 224 165 142 116 107 333 115 139 158 115 87 304 345 333 286 260 169 168 164 158 170 149 144 148 146 152 155 149
352 351 351 352 353 353 353 351 349 347 344 342 340 338 337 335 335 339 337 333 332 327 322 321 322 329 340 340 338 340 323 314 107 120 101 37 194 206 219 220 211 208 210 209 215 240 254 241 208 200 214 222 213 219 226 213 189 178 209 220 205 151 161 150 136 232 238 116 123 118 118 202 334 251 243 278 234 185 145 162 170 149 145 149 148 154 154 150
351 350 349 349 351 352 352 350 348 346 343 341 338 336 337 335 336 339 337 333 331 326 325 326 331 339 339 338 338 331 323 349 116 114 60 13 248 216 217 215 209 206 205 207 223 245 259 260 233 200 205 231 234 236 231 216 201 206 218 215 204 172 179 169 144 171 194 113 128 149 160 174 174 201 218 269 269 290 116 160 161 148 145 148 150 155 154 152
350 349 347 347 349 350 350 349 347 345 343 339 336 334 335 335 336 337 335 332 330 325 329 333 342 345 336 335 333 274 256 279 245 86 29 6 337 226 216 208 203 197 195 202 218 232 241 250 237 206 199 220 238 245 247 231 212 217 210 192 195 186 185 174 149 153 151 130 144 149 152 165 160 164 205 249 258 289 290 163 148 143 145 149 153 158 154 151
350 349 347 346 347 348 348 348 346 344 341 337 334 332 333 335 335 335 333 329 328 326 328 335 342 338 331 333 321 252 237 262 178 91 19 2 30 336 207 189 191 186 188 201 208 217 236 246 231 213 207 216 234 237 244 245 223 221 210 185 188 190 181 162 144 139 134 132 134 132 153 167 159 158 192 218 175 206 225 191 158 145 146 153 156 160 151 152
350 348 346 345 344 346 346 346 345 344 340 335 331 329 331 334 334 334 331 326 323 320 320 327 330 326 322 318 290 284 247 326 73 88 19 34 2 360 173 177 181 177 185 205 212 219 229 242 227 217 226 229 242 246 251 254 229 229 224 195 178 180 177 162 150 139 132 135 142 145 162 165 194 181 192 233 187 197 195 163 162 148 148 158 159 160 151 155
349 348 345 343 342 344 344 344 344 342 339 334 329 327 328 332 334 334 329 323 316 308 311 320 326 325 312 287 266 292 311 327 333 313 10 96 347 17 159 174 174 174 188 206 213 226 232 242 228 217 244 254 258 265 276 277 290 285 267 246 183 175 178 164 153 142 128 134 154 157 153 145 240 252 233 249 214 196 159 135 158 151 152 160 162 160 152 160
349 347 345 343 341 341 342 342 342 340 338 332 327 324 325 330 331 333 328 321 312 299 306 319 326 324 295 285 267 257 313 322 320 293 303 175 233 145 166 181 173 176 196 206 215 228 239 250 246 230 234 253 269 271 283 283 299 302 293 298 240 175 171 159 144 140 127 136 157 136 108 112 17 272 233 219 199 177 146 143 168 159 156 161 165 161 154 163
347 347 344 343 340 340 340 340 340 339 335 329 325 323 323 327 328 329 326 319 308 295 308 322 330 330 297 279 242 238 294 317 321 287 255 210 211 183 178 191 177 183 202 211 218 225 240 254 261 261 241 244 254 257 295 294 290 283 275 288 284 198 170 161 144 152 145 141 150 118 76 88 253 244 208 172 164 155 148 166 177 166 161 163 165 161 158 163
345 346 344 342 340 338 338 339 339 337 332 326 323 322 322 323 324 324 322 314 301 292 309 322 324 320 297 263 238 244 282 293 325 308 232 233 223 178 185 204 186 188 208 224 226 224 234 246 259 270 266 272 269 288 313 301 280 263 253 237 270 290 193 165 150 160 152 139 152 135 96 196 234 233 187 152 160 156 161 183 177 170 167 164 163 162 165 163
343 345 344 342 339 337 337 337 338 336 329 323 321 322 321 320 320 318 316 310 296 292 308 319 318 312 277 264 272 266 283 256 228 256 204 239 255 178 179 219 204 193 209 232 242 252 255 247 253 273 279 277 290 312 315 305 294 272 261 226 219 259 239 187 162 161 147 140 155 136 111 193 210 207 171 151 166 162 176 185 170 169 167 166 162 163 171 165
343 344 343 342 339 337 336 336 337 335 327 321 320 320 318 317 317 310 308 306 298 296 314 318 290 249 269 272 265 248 257 238 222 231 192 258 280 197 173 207 222 203 207 228 243 267 280 264 239 243 277 278 282 294 300 301 294 280 255 249 218 202 245 233 180 159 146 153 164 135 104 215 200 177 155 162 171 163 184 179 167 169 167 171 163 163 175 169
343 344 343 341 338 337 336 335 336 334 325 319 317 317 314 314 311 299 295 297 296 293 308 313 239 208 273 293 231 218 247 259 283 291 252 251 276 257 193 183 214 221 215 230 241 259 281 288 258 232 249 259 266 258 284 295 266 261 227 225 226 205 224 240 209 167 147 147 176 170 128 193 192 162 157 173 168 168 193 177 171 170 167 172 163 166 176 171
343 343 342 340 338 337 335 334 335 333 324 317 318 317 314 312 300 286 285 285 292 289 268 270 251 213 248 286 301 247 233 53 8 328 299 242 258 284 258 177 183 215 218 231 240 242 257 276 280 260 226 230 261 227 242 257 245 258 223 223 247 235 223 226 234 172 147 146 177 190 146 165 189 162 165 175 170 180 188 170 169 168 166 172 163 169 176 173
344 343 342 340 338 337 335 333 334 333 324 316 318 319 315 311 295 281 286 282 293 286 252 258 274 282 250 266 281 272 71 49 354 315 305 232 234 284 294 252 179 195 208 223 231 223 214 222 225 245 213 213 244 223 215 216 229 245 215 203 228 243 246 241 257 160 149 154 171 172 138 179 203 163 169 178 173 181 177 160 168 165 167 172 165 173 176 176
344 343 342 339 338 337 335 333 333 332 326 318 323 330 328 328 322 283 263 229 210 259 276 245 206 237 290 258 249 304 347 342 300 266 225 191 202 235 280 275 231 192 200 190 198 199 193 202 217 231 219 207 214 221 237 236 239 253 250 242 227 239 239 240 261 152 145 151 167 164 147 173 220 176 173 177 175 175 157 160 169 162 171 173 167 176 175 176
344 343 343 339 338 337 334 334 332 332 329 321 329 341 351 356 360 25 286 230 227 247 273 261 206 237 291 299 318 328 315 270 243 241 186 159 179 185 237 258 232 206 208 198 187 186 199 215 211 221 227 222 215 217 237 256 262 270 279 289 279 273 252 234 242 152 142 147 171 168 150 160 196 190 173 170 174 170 157 171 177 162 171 173 170 179 175 174
344 344 343 340 338 336 334 333 330 329 324 318 325 332 10 13 352 342 343 283 271 272 270 265 253 280 285 301 324 319 304 241 216 174 108 153 199 158 174 213 217 209 208 230 224 183 194 224 223 220 226 233 235 223 223 238 256 271 279 287 289 286 281 261 239 164 149 152 165 166 151 160 183 179 167 165 170 174 170 173 175 163 168 176 176 179 175 169
344 345 342 339 338 335 334 332 327 323 315 311 312 279 358 15 343 318 336 297 294 293 281 269 257 275 259 260 299 287 283 258 212 161 91 204 194 160 176 186 205 210 196 222 247 207 194 222 237 234 232 231 240 244 234 229 238 256 269 279 285 281 289 279 255 160 149 149 154 167 163 159 168 163 162 167 169 177 177 171 171 163 165 174 172 174 174 168
344 344 341 340 337 333 333 329 321 313 307 304 291 277 354 360 345 335 322 280 291 283 271 243 229 252 229 195 285 243 269 290 200 138 114 259 190 186 209 197 217 222 202 202 215 230 215 208 220 230 241 237 235 240 246 246 236 238 249 259 269 271 279 281 281 146 161 168 157 165 163 148 157 161 168 172 170 174 174 171 173 168 169 177 167 162 171 168
343 343 340 339 335 332 331 325 315 310 312 300 280 296 3 354 356 0 332 263 280 277 254 217 218 249 143 28 270 206 276 289 324 112 187 246 289 295 243 238 246 233 222 217 211 224 244 232 217 214 222 237 244 235 233 247 249 234 235 242 260 270 271 274 302 313 198 179 158 152 133 142 163 168 173 171 170 175 171 169 175 175 175 173 160 161 169 164
341 341 338 339 336 330 328 322 322 331 323 305 284 319 9 359 1 5 340 267 256 264 239 205 188 267 15 301 217 210 301 278 215 72 63 16 352 349 318 288 260 247 248 239 224 222 239 249 245 228 212 217 237 244 231 226 243 250 231 223 238 263 274 279 301 320 317 179 160 149 127 201 186 171 167 166 169 175 175 172 172 174 175 170 166 174 175 170
340 339 337 338 335 332 332 325 338 335 322 333 357 357 1 359 357 352 331 270 259 192 182 183 168 214 209 160 195 297 325 309 28 59 60 20 13 14 318 306 253 254 261 257 258 239 224 235 247 250 232 211 214 235 245 232 227 248 242 227 225 242 266 279 293 303 309 300 177 169 156 177 201 184 172 172 173 175 182 178 170 170 175 177 180 182 177 180
338 338 337 335 333 336 337 307 329 333 322 9 4 350 350 349 347 349 331 248 256 153 150 172 179 195 164 156 207 344 349 307 337 302 152 86 46 109 274 288 286 273 279 289 282 259 240 232 234 250 255 237 214 210 228 238 236 228 249 257 240 230 245 263 276 269 266 301 262 227 197 137 180 205 187 180 175 175 183 180 172 174 179 181 183 183 180 182
337 337 337 332 329 332 315 289 314 322 311 342 347 344 344 330 321 326 297 309 213 149 149 125 121 175 179 192 223 258 274 231 276 245 153 147 189 164 219 272 288 292 305 317 286 275 269 238 216 243 253 249 244 223 208 220 236 238 250 266 265 248 242 248 257 258 269 292 289 274 261 142 184 203 188 182 177 178 186 182 178 179 180 182 183 183 183 181
336 336 338 331 327 335 321 290 291 301 316 328 335 337 327 309 306 301 241 313 135 154 205 124 117 168 200 232 216 223 256 232 214 204 177 190 200 182 255 277 295 305 307 301 280 287 292 290 309 289 266 249 254 262 245 224 227 237 247 266 281 281 277 271 269 291 316 268 262 276 273 236 215 193 176 177 179 185 192 186 182 182 179 182 182 183 183 180
334 334 338 331 324 340 348 296 274 306 330 326 328 325 310 297 292 195 241 240 146 156 198 132 120 181 216 247 201 179 253 276 129 175 204 202 174 179 251 265 277 299 296 294 289 286 291 299 311 296 269 267 254 255 262 258 266 270 249 257 276 290 303 304 308 15 23 282 264 275 276 278 262 190 170 177 187 189 190 185 181 181 180 183 184 184 183 179
333 334 336 327 316 316 317 283 280 331 337 325 325 315 298 286 221 227 271 101 105 185 177 118 101 185 220 284 224 175 213 244 73 72 252 226 170 181 231 239 224 286 290 286 283 275 278 285 290 273 276 294 279 261 250 249 268 288 261 240 247 277 301 308 355 33 23 276 285 289 283 275 264 210 178 186 193 186 180 180 179 180 182 185 185 184 183 180
333 334 330 320 307 284 262 270 321 349 338 324 324 309 289 227 206 242 251 111 42 301 290 85 62 51 22 336 336 111 116 145 83 360 319 311 302 234 233 215 156 209 277 281 291 273 257 254 257 276 288 299 296 297 292 255 251 256 244 212 186 228 267 270 10 40 230 255 281 296 296 273 255 253 202 192 194 188 186 183 178 180 181 183 186 184 181 181
335 333 324 316 291 268 261 291 326 335 325 321 316 288 287 265 220 319 343 24 85 258 333 59 59 21 3 325 1 54 46 254 207 21 1 355 341 314 349 24 36 41 324 334 335 318 283 261 239 237 273 267 243 255 290 283 244 247 235 156 158 195 218 234 185 189 242 260 257 269 288 278 253 278 250 211 190 183 188 188 180 182 182 180 183 183 180 184
338 328 315 310 280 270 271 285 305 295 302 317 306 270 289 252 3 34 27 27 22 337 45 60 351 342 290 263 69 62 7 319 76 52 8 337 311 307 34 34 31 30 1 359 353 330 331 303 240 166 358 310 258 229 238 274 250 231 220 172 214 223 205 228 184 166 204 231 222 228 247 212 185 263 272 268 219 173 177 187 183 182 182 177 178 179 180 187
341 326 308 303 281 275 275 267 275 276 285 308 295 275 293 270 2 25 23 12 358 3 24 351 288 275 244 220 97 81 64 17 64 58 332 292 329 2 62 42 31 35 20 7 359 338 331 303 315 356 335 311 307 270 239 263 286 244 208 208 220 222 222 244 243 225 217 233 227 215 215 189 192 239 255 265 265 186 170 179 179 176 178 173 174 181 184 188
346 342 315 294 278 276 274 257 254 261 272 304 298 279 326 33 28 29 4 358 356 344 337 313 281 272 269 195 119 117 159 165 69 71 294 293 29 27 53 56 33 39 44 23 310 360 351 288 316 345 325 316 341 330 282 221 240 291 231 217 211 212 227 238 265 280 278 271 261 230 225 210 196 239 249 248 256 219 166 168 174 172 171 172 177 184 185 185
345 343 315 290 287 298 132 214 234 241 259 301 293 296 328 31 32 35 13 349 343 328 317 328 1 337 332 41 119 128 165 180 51 51 257 174 44 19 37 60 42 38 38 27 336 30 16 289 306 343 326 322 340 334 317 231 194 234 275 244 199 207 259 265 260 281 273 258 253 253 254 221 179 217 239 233 239 224 170 166 172 170 170 176 181 184 186 185
335 330 305 288 303 49 82 145 213 225 243 255 264 285 343 54 37 27 17 351 344 335 317 359 3 320 351 10 24 55 226 249 7 322 332 73 47 13 22 42 38 34 23 15 7 11 14 306 303 337 334 327 336 333 325 305 193 205 248 284 329 166 254 249 238 253 254 261 258 269 274 236 189 193 206 216 231 225 176 168 171 170 172 180 183 184 186 184
322 309 303 299 352 52 77 161 202 237 248 272 278 291 47 70 58 40 23 359 2 346 331 20 6 332 22 5 328 2 352 358 42 13 13 63 59 19 24 25 27 24 9 4 6 329 11 308 287 323 357 337 327 306 330 351 282 214 236 284 305 257 237 219 219 221 234 256 248 266 278 256 225 197 191 203 219 224 181 170 172 172 174 180 182 185 185 180
304 269 288 355 353 15 159 180 231 268 254 289 316 28 41 45 55 50 30 358 14 14 353 13 355 349 18 350 336 19 5 2 41 26 11 61 85 34 23 23 24 18 357 349 11 358 356 114 272 316 348 339 305 278 351 357 339 289 277 296 281 276 300 285 255 222 217 229 235 268 275 267 260 221 194 193 198 213 190 170 174 176 174 180 182 181 184 181
296 298 318 6 343 188 185 212 237 237 230 332 31 45 24 4 32 33 26 12 31 51 22 4 354 1 14 359 7 32 10 349 19 19 1 48 68 45 18 20 20 17 356 343 25 32 359 341 297 310 330 320 289 299 321 331 324 314 307 304 289 264 258 273 267 235 218 209 216 273 278 263 271 293 289 222 200 207 193 166 174 179 176 180 182 180 182 179
268 324 3 38 355 210 241 263 234 196 215 45 60 43 2 354 28 20 15 26 35 40 17 9 17 20 26 15 13 29 23 353 10 11 2 49 54 43 28 28 20 13 5 360 29 22 341 295 299 301 304 298 290 295 305 307 302 296 291 309 319 303 277 263 283 293 256 208 200 237 281 272 274 317 321 293 210 190 190 161 167 178 177 178 178 176 178 179
291 317 301 32 249 245 278 304 330 54 62 63 79 58 21 21 39 25 11 13 22 23 16 24 32 30 25 8 2 26 29 7 13 8 352 56 57 37 28 32 23 15 10 4 14 3 342 324 326 315 305 297 291 291 295 300 307 303 306 342 352 346 352 333 330 350 320 245 195 209 224 268 287 329 319 304 191 171 184 158 160 173 173 171 173 176 178 180
336 294 254 25 328 279 15 349 333 60 64 27 66 84 63 32 35 35 20 17 23 16 10 26 33 29 20 5 4 30 30 4 12 9 350 13 47 38 31 27 20 20 28 18 8 356 343 3 7 335 320 317 308 303 310 333 353 345 320 337 348 350 352 352 20 19 356 2 6 315 205 253 312 4 356 353 20 27 117 138 151 165 169 171 171 176 184 183
325 275 236 16 358 344 99 24 3 48 48 21 34 82 101 77 44 42 32 26 33 22 8 24 23 18 25 24 15 12 17 20 6 1 356 354 11 33 28 20 13 7 3 1 355 346 332 348 8 333 303 306 308 316 335 338 338 324 311 325 333 343 351 350 2 15 342 350 352 322 250 298 329 15 13 12 22 21 27 59 76 76 128 198 182 175 182 181
317 323 330 2 2 5 45 31 34 51 31 21 7 10 63 86 65 46 31 25 38 26 4 22 24 14 22 34 24 359 1 14 2 349 1 358 2 11 1 1 6 347 335 340 337 326 320 297 269 245 257 269 276 290 301 303 305 307 313 319 321 334 350 340 326 15 345 334 319 265 338 330 331 19 19 12 27 30 28 32 38 41 24 312 198 180 178 178
304 9 12 346 336 6 17 16 37 49 23 24 354 343 28 63 59 46 29 23 51 36 5 29 44 22 18 33 32 358 353 359 349 343 2 9 358 344 339 340 334 324 332 332 316 301 278 267 264 253 253 264 270 278 287 291 295 299 303 309 310 320 335 321 310 358 348 332 307 309 349 336 319 1 25 14 24 33 28 26 26 30 33 31 71 144 143 123
342 26 17 348 319 12 21 1 23 50 37 27 15 2 21 47 50 41 11 4 47 54 22 30 53 35 19 22 30 16 2 347 333 348 9 15 349 330 332 321 301 323 349 321 304 318 292 271 285 280 271 272 272 276 283 287 290 290 291 301 307 313 321 307 300 329 337 298 277 299 324 319 301 325 23 24 25 32 29 29 28 29 38 43 53 69 66 54
5 3 358 353 350 18 2 343 20 65 58 31 22 16 14 30 35 25 4 352 26 52 34 1 23 24 10 2 5 55 46 338 323 346 348 339 330 313 316 309 310 1 5 321 325 21 9 304 299 293 293 293 287 280 280 282 285 287 289 295 301 307 311 298 290 294 301 285 279 299 319 313 289 288 351 22 30 36 32 30 32 34 37 42 48 55 56 53
10 39 354 340 349 1 333 326 25 73 60 21 23 19 10 34 34 11 1 9 9 27 31 8 8 13 359 349 345 359 28 340 309 317 315 316 321 300 308 310 307 359 351 308 330 53 101 312 306 302 303 305 302 292 280 279 281 281 284 283 281 287 288 281 280 285 290 285 290 326 334 321 311 310 315 18 39 40 38 31 31 35 33 35 41 44 47 46
354 9 6 319 313 339 314 338 47 72 62 25 23 24 17 40 40 6 354 20 4 353 22 19 8 2 339 325 335 352 359 333 303 306 311 310 305 291 284 276 272 284 268 264 298 121 136 310 312 311 297 291 302 301 294 291 284 276 276 276 271 275 277 276 287 305 300 294 313 350 348 320 333 332 328 20 49 49 47 33 26 31 31 31 36 35 36 42
356 357 358 327 258 305 320 29 47 58 72 46 38 44 30 29 38 22 358 12 355 351 19 15 358 347 325 331 7 6 336 308 298 305 307 297 290 285 275 271 279 294 295 281 253 173 180 240 295 311 299 289 295 298 301 303 292 275 270 272 269 266 268 273 288 296 288 285 307 353 9 355 1 348 341 7 42 53 54 45 29 24 27 29 32 29 27 32
Height
805 803 801 799 797 795 793 791 789 787 785 784 782 781 779 778 776 774 773 771 770 768 767 766 765 765 763 762 761 761 760 758 758 759 757 750 747 750 751 751 751 753 755 756 757 759 760 761 761 759 761 761 761 761 758 754 758 770 783 793 798 795 789 782 781 781 786 791 788 780 777 781 782 774 766 770 771 765 769 774 771 769 768 770 774 777 780 784
804 803 800 798 796 794 792 790 788 786 785 783 781 780 778 777 775 773 772 770 768 767 766 765 764 763 762 762 761 760 759 757 757 756 750 746 746 749 750 750 751 753 753 755 756 756 759 761 759 759 762 763 760 758 760 755 758 772 782 790 792 785 777 771 773 775 779 786 786 782 780 781 781 776 767 772 776 768 773 779 777 776 773 772 774 778 781 783
804 802 800 798 796 793 792 789 788 786 784 782 781 779 778 776 774 772 771 769 767 766 765 763 762 762 761 761 760 759 758 757 756 751 744 743 745 746 748 750 750 752 753 753 754 755 757 757 756 758 762 764 760 758 762 757 758 766 774 788 783 771 768 766 768 772 775 779 781 782 782 781 780 779 776 775 774 772 776 778 777 778 776 775 775 776 780 783
803 801 799 797 795 793 791 789 787 785 783 781 780 778 777 775 773 772 770 768 766 765 763 762 761 761 761 760 760 759 758 758 753 744 742 742 743 744 747 748 748 751 751 751 753 754 753 753 754 756 760 765 760 757 762 757 758 763 768 779 771 762 768 766 765 769 771 776 780 782 784 785 781 783 785 781 780 779 775 772 771 772 773 773 775 776 779 782
803 801 799 797 794 792 790 788 786 784 782 780 779 777 776 774 773 771 769 767 765 764 762 762 761 760 761 760 760 759 759 761 751 740 742 742 741 744 745 746 747 749 749 751 753 752 753 751 751 754 760 764 762 760 761 751 750 761 763 762 759 760 768 764 763 769 770 773 779 784 787 787 784 785 784 784 786 779 769 766 764 764 767 769 772 775 778 781
803 800 798 796 793 792 789 787 785 783 781 779 778 776 775 773 771 770 768 766 764 763 762 761 760 760 760 760 760 759 761 760 745 739 742 740 741 742 743 745 745 747 749 751 752 752 753 751 752 757 761 763 763 762 758 745 744 760 761 753 754 757 762 761 761 767 768 772 778 781 782 781 786 787 779 781 783 772 763 760 759 760 763 767 770 774 778 781
802 800 797 795 793 791 788 786 784 781 780 778 777 775 774 772 770 769 767 765 764 762 762 761 760 760 760 760 759 759 761 754 739 739 741 739 741 740 741 743 743 747 747 749 751 752 753 753 755 755 760 764 762 758 752 743 741 754 759 751 749 750 754 755 755 762 766 771 774 773 777 779 784 783 777 780 777 768 762 756 755 759 763 768 772 775 778 781
801 799 796 794 792 790 787 785 783 781 779 776 775 774 773 771 770 768 766 765 763 762 762 761 761 760 760 760 759 759 758 748 737 738 739 738 739 738 740 741 742 745 745 748 748 749 752 754 753 751 760 762 756 754 748 745 745 748 753 747 744 745 747 749 751 759 763 767 770 773 778 779 778 776 777 777 769 765 762 756 756 759 764 769 773 777 779 782
801 798 796 793 791 789 787 784 782 780 777 775 774 772 771 770 768 766 765 764 762 762 761 760 761 759 760 759 759 761 752 740 737 737 737 737 737 737 739 739 741 743 745 747 745 748 751 752 749 746 755 755 749 750 743 749 752 742 741 740 742 746 745 746 750 755 761 764 768 775 780 780 775 773 778 773 765 765 762 759 759 761 767 771 774 776 779 783
801 798 795 793 790 788 786 783 781 779 776 775 772 770 769 768 767 765 764 763 762 762 761 761 760 759 760 758 760 762 745 735 738 737 737 737 736 737 738 738 740 742 744 745 745 746 746 746 743 738 746 748 746 747 742 748 746 733 733 734 737 743 741 743 749 752 758 764 767 775 781 779 776 779 783 772 762 761 761 764 762 763 770 772 774 776 778 782
800 797 795 792 789 787 785 782 780 778 776 773 771 770 768 767 766 764 763 763 761 761 761 760 759 759 759 758 762 759 740 735 738 736 738 737 736 737 738 739 739 741 743 743 744 743 742 740 735 737 746 747 745 747 742 738 735 731 734 736 735 739 741 743 750 753 757 766 768 771 779 779 781 787 781 767 760 758 761 768 766 766 770 771 773 775 778 781
799 797 794 791 789 786 784 782 779 777 774 772 770 768 767 766 764 763 762 761 761 760 760 760 760 759 758 759 759 749 736 736 736 735 737 736 737 737 737 739 739 741 742 741 742 740 740 736 733 742 746 743 748 752 744 732 732 733 734 745 743 739 746 747 750 753 755 766 765 767 784 788 786 785 772 761 760 760 763 769 768 768 769 770 772 775 778 780
799 796 794 791 788 785 783 780 778 776 773 771 769 766 766 764 762 762 761 760 760 760 760 760 759 759 761 759 747 738 735 736 735 735 736 735 736 736 737 739 738 740 741 740 740 737 738 735 735 741 738 741 750 746 738 730 734 737 735 746 751 751 753 745 747 752 754 763 756 760 790 796 788 780 765 759 761 763 768 769 769 769 768 770 771 774 777 778
798 795 793 790 787 784 782 779 777 774 771 769 767 765 764 762 761 760 759 759 759 759 759 759 760 760 762 754 738 734 735 734 735 734 734 735 734 735 736 737 737 739 740 739 738 736 736 734 734 738 736 741 743 738 740 740 740 743 743 746 753 764 759 738 741 752 757 762 751 757 789 793 783 776 762 758 760 763 771 769 767 768 768 770 771 774 777 777
797 794 792 789 786 783 780 778 775 773 770 767 765 763 762 761 760 758 758 758 757 759 758 758 759 759 760 751 735 734 734 733 735 733 733 734 733 734 734 736 736 736 738 738 737 736 734 732 736 744 743 738 740 748 755 754 748 746 756 762 757 763 759 737 733 744 754 762 754 760 785 787 775 769 762 760 761 763 770 769 766 768 768 770 771 773 777 776
796 793 790 788 785 782 779 776 774 772 769 766 763 761 760 759 758 757 757 756 757 758 757 758 757 758 761 750 735 733 734 733 733 732 732 733 733 733 732 734 735 735 737 736 736 736 734 734 737 742 745 745 750 758 763 765 761 752 759 768 760 759 759 745 732 730 740 758 763 763 776 783 770 762 763 764 767 770 770 767 766 767 768 769 771 773 775 776
795 792 790 787 784 781 778 775 773 770 767 764 762 759 757 756 755 754 754 755 756 755 756 757 755 758 756 741 735 736 732 731 732 731 731 731 732 732 730 732 733 734 735 735 737 736 736 739 742 743 746 752 754 758 772 782 776 762 758 762 758 752 755 750 734 724 733 754 768 765 768 775 767 758 760 761 765 771 768 765 765 766 768 768 770 773 774 776
794 791 788 786 783 780 777 774 771 769 766 763 761 758 754 753 752 752 753 754 754 755 757 756 756 765 758 740 738 736 729 731 731 731 731 731 731 732 731 731 732 734 737 740 739 739 742 743 747 753 754 757 757 761 777 781 772 765 760 759 758 749 748 748 734 722 730 746 757 764 768 769 764 760 759 756 757 762 763 762 764 765 767 769 769 772 773 774
794 791 788 785 782 779 776 773 770 768 765 761 759 756 752 750 750 751 752 753 755 758 759 755 755 762 755 740 734 730 728 730 731 731 730 730 731 732 731 731 731 735 744 750 748 743 746 750 755 762 763 761 759 760 765 763 756 755 751 752 755 751 745 737 726 715 720 738 748 756 768 768 764 765 760 756 754 758 763 762 763 766 767 768 769 771 771 773
793 790 787 784 781 778 775 772 769 768 766 762 759 757 755 755 756 755 753 753 753 752 750 748 746 746 742 735 731 730 730 729 730 730 728 729 730 731 733 733 735 740 747 753 752 743 745 759 765 764 762 757 753 752 752 751 748 747 747 749 749 749 745 728 719 714 713 735 747 745 761 766 761 760 756 754 755 758 765 765 764 766 767 767 768 769 769 771
792 789 786 783 780 777 774 772 769 768 767 764 763 762 761 762 765 765 759 753 747 742 743 739 737 738 737 734 731 730 732 732 730 727 727 728 728 735 738 737 744 750 748 748 747 741 746 763 764 755 752 748 745 745 745 748 748 748 749 752 750 748 744 724 714 714 709 730 748 741 754 764 756 753 750 749 756 759 761 764 764 764 765 765 765 767 767 768
791 788 785 782 779 776 773 770 768 767 766 765 764 764 762 761 764 763 761 760 749 739 739 735 734 736 732 731 730 729 734 737 734 729 727 727 730 739 741 740 749 752 746 746 749 751 757 763 756 745 742 741 742 741 742 746 746 749 749 752 756 746 739 726 710 710 711 728 746 742 750 760 750 746 746 746 751 754 753 755 759 761 763 765 765 765 765 766
791 787 784 782 778 776 773 770 768 766 765 764 764 762 761 760 761 759 760 764 755 741 737 736 737 737 733 732 730 730 737 739 738 734 726 728 733 736 739 743 748 747 746 749 754 761 764 758 745 738 737 740 743 740 741 745 745 748 749 754 757 743 741 740 719 712 715 722 736 740 748 756 751 748 747 744 745 747 749 750 753 756 759 762 762 762 763 765
791 787 785 781 778 775 772 769 767 766 766 764 763 762 761 760 760 760 760 762 759 745 734 732 732 734 734 732 730 733 739 735 736 735 725 729 734 733 737 741 744 747 746 745 748 755 756 743 732 733 736 739 744 742 742 748 750 747 744 749 752 741 738 738 724 716 717 719 726 738 759 764 754 755 752 743 744 745 746 749 753 754 755 757 759 761 761 762
790 787 784 781 778 774 771 769 766 766 766 763 762 761 761 761 759 760 762 766 764 747 733 731 731 733 731 730 731 732 736 734 731 730 724 727 734 736 739 737 740 749 745 740 743 748 746 733 726 732 736 736 743 744 741 745 752 749 740 737 739 737 734 730 726 726 734 741 731 737 776 783 756 752 753 745 746 748 746 748 752 753 753 756 758 760 760 760
789 787 783 781 778 773 770 768 766 766 764 762 762 761 761 761 759 760 764 774 770 748 739 739 737 737 733 732 731 729 741 741 727 724 725 727 729 734 743 740 737 744 741 736 739 740 736 727 725 732 734 735 740 743 738 737 750 754 738 726 728 731 732 731 731 738 749 752 733 728 764 784 766 754 750 744 747 750 747 746 749 750 752 754 756 757 758 758
788 785 782 780 777 776 773 769 768 767 764 763 762 762 762 760 760 760 768 785 775 746 742 743 737 738 735 732 730 736 753 747 729 726 725 728 728 730 745 746 741 741 733 735 748 741 730 728 730 730 732 736 740 742 735 730 747 751 729 721 727 728 731 731 731 741 743 738 734 727 738 768 778 761 744 742 748 752 750 748 747 747 749 750 751 753 754 756
787 784 781 778 776 777 776 772 771 767 765 765 762 763 763 760 761 762 777 794 771 739 740 741 735 735 732 731 731 738 745 739 740 738 723 725 730 731 745 746 743 743 732 741 759 743 726 730 733 731 734 738 736 733 726 726 740 738 721 720 723 724 728 726 730 739 736 738 750 738 728 758 777 755 740 743 750 756 753 747 746 744 745 746 747 749 749 751
785 782 780 777 775 775 774 773 771 768 766 764 763 764 762 761 762 766 786 792 759 737 740 738 737 737 733 735 735 736 735 732 742 739 724 727 729 730 743 741 739 743 736 740 752 741 727 725 726 730 736 735 729 722 717 723 732 725 718 721 720 722 724 725 732 737 738 751 761 744 732 754 766 750 745 751 753 755 748 741 740 739 740 741 742 744 745 746
782 780 779 776 773 773 774 772 769 767 766 764 765 763 760 762 767 780 797 781 749 741 741 737 741 741 738 741 740 738 737 735 735 732 730 731 729 730 735 733 735 742 741 739 742 738 727 718 719 726 729 725 721 718 714 717 720 717 720 726 728 729 727 729 732 735 751 766 758 740 730 745 760 750 742 743 739 736 735 737 737 736 738 739 737 739 740 743
779 778 777 775 773 773 773 771 767 767 766 765 764 761 762 766 772 791 791 758 742 747 742 740 744 740 741 744 745 742 740 739 735 736 739 736 736 739 738 739 743 748 751 748 744 738 730 727 724 720 717 716 718 720 716 712 714 720 728 734 741 744 740 744 743 744 771 779 754 735 727 738 759 749 730 725 716 714 723 729 732 734 735 735 734 734 735 738
777 775 774 773 771 771 771 768 766 766 765 764 763 761 767 776 781 787 770 745 752 757 744 745 745 740 743 744 745 744 742 744 740 740 744 742 745 744 744 749 750 758 767 759 751 745 737 732 726 721 715 714 724 731 727 720 719 728 733 739 756 765 764 770 769 765 777 773 747 733 732 740 748 731 716 716 712 711 714 713 717 722 726 728 728 729 730 733
776 772 771 771 769 768 767 766 765 766 765 764 764 763 771 786 785 772 756 750 760 754 741 746 744 742 747 748 749 746 744 747 743 743 744 744 749 746 744 746 743 757 768 759 758 758 749 736 724 726 724 715 724 738 742 737 730 734 737 744 763 775 783 790 784 778 779 767 743 733 738 747 742 719 702 701 701 702 705 705 707 710 714 719 720 722 726 728
774 771 770 769 768 767 765 766 765 765 765 763 766 769 779 789 775 759 758 758 752 744 743 748 746 747 749 750 751 748 749 750 742 746 750 748 754 753 751 751 746 753 760 761 766 766 770 762 736 732 736 725 724 730 734 734 733 733 729 737 754 762 774 783 778 778 778 764 746 740 746 750 742 719 694 685 686 689 696 699 701 705 708 712 716 720 724 725
773 771 769 767 767 765 764 766 765 764 766 765 769 777 783 784 770 762 767 761 752 749 749 747 747 753 753 748 748 748 753 756 746 748 754 753 757 757 757 759 755 757 764 775 776 769 776 769 738 732 734 728 728 723 718 727 738 732 722 736 750 744 749 761 759 756 757 761 755 745 742 732 719 704 685 680 681 682 691 695 699 707 709 712 719 720 722 723
772 769 769 766 764 763 762 764 764 764 766 767 776 782 777 772 768 766 765 759 756 756 755 753 751 757 758 752 752 752 752 755 752 755 757 754 760 763 761 763 761 760 769 780 781 777 786 772 741 737 736 725 730 727 717 726 739 734 732 741 736 723 731 751 756 744 746 768 762 740 735 723 713 708 692 685 686 683 690 696 699 707 709 713 719 717 717 719
771 770 768 765 762 762 762 763 764 765 765 770 783 782 767 763 764 762 761 758 756 755 758 765 761 761 765 760 758 756 754 756 756 760 760 758 769 773 766 766 765 764 768 776 778 778 789 781 750 745 749 732 725 728 719 714 722 736 743 734 720 720 727 740 759 758 759 775 761 735 735 732 729 726 703 692 694 689 691 696 698 704 708 712 714 712 713 712
773 772 769 763 762 762 762 763 764 764 766 774 782 774 762 764 763 760 760 759 758 757 762 771 767 761 764 768 764 755 755 763 762 762 762 763 777 781 775 774 772 769 769 772 778 776 782 789 764 747 754 742 727 734 733 716 711 723 730 720 724 747 750 745 760 770 772 778 763 740 734 729 728 724 705 698 697 690 691 695 698 702 706 708 709 708 708 708
776 775 770 763 761 762 762 764 762 763 769 777 779 770 762 764 762 759 761 760 760 763 767 772 769 762 764 768 766 757 757 765 766 766 768 771 783 784 778 780 779 776 773 770 778 777 777 794 781 751 750 752 741 743 749 742 728 718 719 720 727 744 750 746 749 755 764 774 767 753 743 728 714 703 696 696 689 684 689 694 695 698 700 702 704 705 705 706
776 777 771 762 761 763 761 762 763 768 774 774 773 769 764 763 762 760 761 760 762 766 770 771 769 769 769 766 764 763 764 765 764 768 770 774 786 787 780 781 781 781 777 770 776 779 776 790 791 766 756 764 760 749 751 760 755 742 739 740 738 736 738 742 742 739 748 764 766 763 757 733 699 681 683 686 678 673 679 687 689 689 691 693 695 697 700 701
777 778 771 761 761 762 761 765 768 769 771 769 768 769 766 763 763 762 761 759 761 764 765 767 768 770 772 771 770 771 773 772 769 772 775 777 788 793 786 782 781 782 781 778 783 790 790 793 797 788 778 777 768 750 746 756 759 756 753 750 746 741 741 754 757 739 733 747 754 758 761 734 691 674 676 676 672 665 666 677 683 681 683 687 688 690 692 694
780 779 769 761 762 761 762 768 766 763 768 769 769 770 766 762 764 766 764 761 763 764 762 764 768 771 775 777 776 776 779 781 778 779 781 784 791 795 789 784 783 782 784 787 789 791 792 794 799 797 787 778 764 748 746 751 750 749 748 744 742 740 741 758 768 750 735 736 735 742 756 732 687 673 675 669 664 660 658 668 677 678 679 681 683 685 687 689
782 779 766 761 761 759 766 774 767 764 768 766 765 767 767 766 769 772 770 768 769 769 768 770 772 775 779 778 777 780 784 784 783 782 783 785 790 791 786 785 786 784 788 795 795 790 790 795 804 804 789 773 760 747 742 744 746 751 749 744 746 748 747 752 759 755 749 744 738 746 757 731 688 677 677 665 657 655 655 661 671 677 679 680 682 684 685 687
783 778 767 762 760 759 769 779 774 771 771 766 765 770 771 771 773 776 777 777 776 775 776 777 777 779 780 779 779 783 787 790 789 786 785 787 788 787 786 787 789 789 793 800 801 798 800 804 811 816 809 794 776 763 759 758 761 767 763 754 753 753 750 749 749 755 761 758 755 758 755 726 695 687 686 675 669 666 661 661 666 672 675 677 679 681 683 686
784 778 768 763 760 761 768 773 772 774 774 772 772 772 774 777 777 777 779 779 778 779 782 782 779 780 781 782 786 786 786 792 796 792 791 792 789 787 789 791 792 792 795 797 796 798 806 809 812 822 828 822 807 795 792 788 780 774 768 761 757 753 754 756 758 768 773 767 763 764 755 729 705 699 699 692 688 685 680 677 678 682 685 681 676 678 682 685
788 783 777 772 767 765 767 767 769 776 778 779 780 775 776 782 782 778 780 782 781 781 783 783 782 785 787 789 797 798 793 794 798 798 799 800 798 795 793 793 795 796 795 795 794 797 805 809 810 817 822 820 814 804 796 791 786 780 773 766 761 757 756 760 767 774 775 771 766 760 754 744 725 714 713 707 701 700 696 692 690 692 693 685 674 674 679 683
789 787 787 787 783 778 776 772 772 778 779 782 787 782 779 783 786 784 782 783 784 784 786 786 786 792 796 798 804 807 803 801 804 804 805 806 806 802 797 795 797 796 796 796 795 798 807 811 807 807 808 805 802 796 788 785 785 782 776 771 765 761 760 764 770 769 768 776 775 756 749 753 741 725 722 717 710 707 702 698 697 694 690 684 678 681 687 691
790 789 786 789 791 789 788 783 778 781 783 785 788 787 785 787 791 793 790 785 784 787 793 795 793 795 798 800 806 811 812 812 812 810 810 810 810 807 803 800 797 795 796 798 796 797 808 812 805 802 800 795 791 789 785 783 782 777 773 772 768 764 764 767 767 761 760 773 773 756 750 753 742 730 727 720 714 712 707 703 701 697 693 691 691 695 701 703
794 794 788 787 790 791 790 785 780 785 790 791 793 794 794 795 797 799 795 792 792 792 796 802 801 799 800 801 805 812 816 819 818 814 811 811 811 811 810 807 801 797 799 801 799 800 809 812 805 801 801 795 790 787 782 781 781 776 772 771 769 767 766 767 764 756 755 760 756 749 750 745 735 732 727 718 714 713 709 705 703 702 701 702 703 704 706 709
800 802 799 796 794 792 791 786 784 790 795 795 799 800 797 799 805 804 798 799 803 801 799 805 805 802 804 804 806 810 811 813 816 814 810 811 811 811 811 810 805 802 803 804 802 803 811 814 806 802 806 803 794 786 781 780 780 777 772 769 768 767 765 764 760 754 753 755 748 746 751 744 733 731 725 715 714 714 714 713 711 712 711 709 710 711 712 714
804 803 803 805 801 795 793 788 786 795 802 802 804 804 802 804 808 808 804 802 806 806 802 805 807 805 805 805 807 810 807 807 809 807 804 807 808 807 806 805 803 804 805 805 803 804 811 815 810 808 814 810 797 790 786 779 776 776 773 769 767 768 765 759 755 753 754 756 751 752 758 752 743 741 732 719 716 720 724 723 720 719 718 717 718 719 718 719
806 804 802 806 804 796 793 792 792 800 807 807 806 807 808 807 807 811 813 807 803 803 803 804 807 809 809 809 809 809 806 805 804 802 800 801 800 800 800 798 798 801 804 804 804 805 809 814 814 816 821 813 800 795 789 784 789 788 775 765 763 762 758 754 754 754 751 750 753 761 765 757 749 749 744 731 724 726 729 729 728 726 725 725 726 725 724 724